STARLINK-35668, 66401

Orbit data source: Space-Track

STARLINK-35668, 66401 is a payload satellite owned by SpaceX/Seattle (US) in LEO that was launched on Sat, 08 Nov 2025 UTC via an FALCON 9 launch vehicle from the Air Force Eastern Test Range (AFETR). Payload-class satellites include a variety of spacecraft equipped with specific instruments for various scientific and technological missions. These include communications satellites like Starlink; space stations such as the ISS; scientific satellites like the Hubble; Earth observation satellites from companies like Planet Labs, Umbra, and HawkEye 360; GPS; miniature CubeSats for education and research; and military/defense satellites.

Loading next visibility...
Identifier
66401, 2025-257X
Orbit
LEO
Country
Flag of USUS
Related business
Manufacturer
SpaceX/Seattle
Mission
Operational Commercial Communications
Bus & Motor
STARLINK V2MO, Unknown motor
Mass
575 kg wet, ~530 kg dry
Launch date (UTC)
2025-11-08 (7 months ago)
Launch vehicle
FALCON 9
Launch site
Air Force Eastern Test Range (AFETR)
Object type
Payload
Rocket body
Debris
Shape & HBR
Box + 2 Pan, 17.7 m
Radar Cross Section
36.964 m², Large (>1 m²)

Expand to show TLE details & history
Last TLE update: 21 hours ago

TLE from 21 hours ago
0 STARLINK-35668
1 66401U 25257X   26170.96174094  .00022438  00000-0  67290-3 0  9990
2 66401  53.1584 100.4296 0001190  88.3995 271.7144 15.34415650 35413
Epoch: 2026-06-19T23:04Z
TLE epoch observation values (Epoch: 2026-06-19T23:04:54.417Z)
Latitude
Longitude
-153.98034°
Altitude
463.534 km
Speed
7.636 km/s
True Right ascension
06h 41m 43s
True Declination
0° 00' 00"
Sunlit
Object was in daylight at epoch
Visualization orbit readout
Latitude
Unknown
Longitude
Unknown
Altitude
Unknown
Speed
Unknown
Apparent Right ascension
Unknown
Apparent Declination
Unknown
Sunlit
N/A
Visualization observer readout
Local Sidereal Time
07:17:23
Azimuth
Unknown
Elevation
Unknown
Doppler factor
Unknown
Orbital elements
Apogee altitude
463.728 km
Perigee altitude
462.1 km
Semi-major axis
6,841.051 km
Eccentricity
0.00012
Inclination
53.1584°
RAAN
100.4296°
Arg. of periapsis
88.3995°
True anomaly
271.70077°
Mean anomaly
271.7144°
Eccentric anomaly
271.70758°
Mean motion
3.83583 °/min
Orbital period
93.85 mins
BSTAR
0.0006729
Loading maneuver chart data...
Computing Atmospheric mass density...
Loading historical data...
Loading historical data...
Loading historical data...
Loading historical data...
Loading historical data...
Loading historical data...
Loading historical data...

Documentation

Showing up to 5 results
|